Brownsville, TX

3:55 AM CDT on July 27, 2017 (GMT -0500)
Brownsville-South Padre I International

Weather History for KBRO - October, 2013

Change the Weather History Date:

Saturday, October 26, 2013

  Actual Average Record
Temperature  
Mean Temperature 78 °F 74 °F  
Max Temperature 87 °F 84 °F 92 °F (1917)
Min Temperature 69 °F 65 °F 47 °F (1892)
Degree Days  
Heating Degree Days 0 0  
Month to date heating degree days 0 0  
Since 1 July heating degree days 0 0  
Cooling Degree Days 13 10  
Month to date cooling degree days 297 309  
Year to date cooling degree days 3867 3720  
Growing Degree Days 28 (Base 50)    
Moisture  
Dew Point 64 °F    
Average Humidity 63    
Maximum Humidity 84    
Minimum Humidity 42    
Precipitation  
Precipitation 0.00 in 0.09 in 2.23 in (2003)
Month to date precipitation 1.38 3.32  
Year to date precipitation 23.31 24.05  
Sea Level Pressure  
Sea Level Pressure 30.11 in    
Wind  
Wind Speed 8 mph (ESE)    
Max Wind Speed 20 mph    
Max Gust Speed 25 mph    
Visibility 10 miles    
Events      
T = Trace of Precipitation, MM = Missing Value Source: NWS Daily Summary

Daily Weather History Graph

Daily Weather History Graph

Search for Another Location

Airport or City:

Trip Planner

Search our weather history database for the weather conditions in past years. The results will help you decide how hot, cold, wet, or windy it might be!

Date:

Astronomy

Oct. 26, 2013 Rise Set
Actual Time 7:34 AM CDT 6:52 PM CDT
Civil Twilight 7:11 AM CDT 7:15 PM CDT
Nautical Twilight 6:44 AM CDT 7:42 PM CDT
Astronomical Twilight 6:17 AM CDT 8:09 PM CDT
Moon 12:21 AM CDT (10/26) 1:47 PM CDT (10/26)
Length of Visible Light 12h 04m
Length of Day
11h 17m
Waning Gibbous, 53% of the Moon is Illuminated
Oct 26
Waning Gibbous
Oct 26
Last Quarter
Nov 3
New
Nov 9
First Quarter
Nov 17
Full

Hourly Weather History & Observations

Time (CDT) Temp. Heat Index Dew Point Humidity Pressure Visibility Wind Dir Wind Speed Gust Speed Precip Events Conditions
12:53 AM 75.9 °F - 64.0 °F 67% 30.15 in 10.0 mi East 5.8 mph - N/A   Clear
1:53 AM 73.9 °F - 64.9 °F 73% 30.14 in 10.0 mi East 4.6 mph - N/A   Mostly Cloudy
2:53 AM 72.0 °F - 64.9 °F 78% 30.13 in 10.0 mi East 4.6 mph - N/A   Partly Cloudy
3:53 AM 72.0 °F - 64.0 °F 76% 30.11 in 10.0 mi East 4.6 mph - N/A   Clear
4:53 AM 72.0 °F - 64.0 °F 76% 30.10 in 10.0 mi East 3.5 mph - N/A   Clear
5:53 AM 70.0 °F - 63.0 °F 78% 30.11 in 10.0 mi East 3.5 mph - N/A   Clear
6:53 AM 70.0 °F - 63.0 °F 78% 30.12 in 10.0 mi ESE 5.8 mph - N/A   Clear
7:53 AM 71.1 °F - 64.0 °F 78% 30.12 in 10.0 mi ESE 5.8 mph - N/A   Clear
8:53 AM 75.9 °F - 64.9 °F 69% 30.13 in 10.0 mi ESE 5.8 mph - N/A   Clear
9:53 AM 82.0 °F 83.8 °F 64.9 °F 56% 30.16 in 10.0 mi ESE 15.0 mph 23.0 mph N/A   Clear
10:53 AM 82.9 °F 84.6 °F 64.9 °F 54% 30.16 in 10.0 mi SE 12.7 mph - N/A   Partly Cloudy
11:53 AM 86.0 °F 86.1 °F 61.0 °F 43% 30.15 in 10.0 mi SE 13.8 mph - N/A   Partly Cloudy
12:53 PM 86.0 °F 86.3 °F 62.1 °F 44% 30.14 in 10.0 mi ESE 17.3 mph 21.9 mph N/A   Partly Cloudy
1:53 PM 84.9 °F 85.9 °F 63.0 °F 48% 30.11 in 10.0 mi SE 13.8 mph 20.7 mph N/A   Partly Cloudy
2:53 PM 86.0 °F 86.8 °F 63.0 °F 46% 30.09 in 10.0 mi SSE 15.0 mph 20.7 mph N/A   Scattered Clouds
3:53 PM 84.9 °F 85.9 °F 63.0 °F 48% 30.07 in 10.0 mi SE 9.2 mph - N/A   Partly Cloudy
4:53 PM 84.9 °F 85.9 °F 63.0 °F 48% 30.06 in 10.0 mi SE 11.5 mph - N/A   Clear
5:53 PM 81.0 °F 82.5 °F 64.0 °F 56% 30.06 in 10.0 mi SE 10.4 mph - N/A   Mostly Cloudy
6:53 PM 79.0 °F - 64.9 °F 62% 30.06 in 10.0 mi SE 6.9 mph - N/A   Partly Cloudy
7:53 PM 75.9 °F - 64.9 °F 69% 30.08 in 10.0 mi ESE 3.5 mph - N/A   Mostly Cloudy
8:53 PM 75.0 °F - 66.0 °F 73% 30.08 in 10.0 mi East 4.6 mph - N/A   Clear
9:53 PM 73.9 °F - 66.0 °F 76% 30.08 in 10.0 mi ESE 3.5 mph - N/A   Partly Cloudy
10:53 PM 71.1 °F - 64.9 °F 81% 30.08 in 10.0 mi ESE 3.5 mph - N/A   Clear
11:53 PM 71.1 °F - 66.0 °F 84% 30.06 in 10.0 mi SE 4.6 mph - N/A   Clear